Overview Statistics Trail Chart Weather Telemetry Raw packets
 

This is the latest recevied weather packets stored in our database for station/object NB9X. If no packets are shown the sender has not sent any weather packets the latest 10 day(s).

<< 96 97 98 99 100 101 102 >>
Time Temp. Humidity Pressure Rain* Wind** Luminosity Snow
1787938475 33.33° C 100% 1016.5 hPa 0.25 mm - - -
1787938175 33.33° C 100% 1016.4 hPa 0.25 mm - - -
1787937875 32.78° C 100% 1016.4 hPa 0.25 mm - - -
1787937575 32.78° C 100% 1016.5 hPa 0.25 mm - - -
1787937275 32.22° C 100% 1016.6 hPa 0.25 mm - - -
1787936975 32.22° C 100% 1016.8 hPa 0.76 mm - - -
1787936675 33.33° C 100% 1016.9 hPa 1.27 mm - - -
1787936379 32.22° C 100% 1016.9 hPa 2.03 mm - - -
1787936075 31.11° C 100% 1016.9 hPa 2.03 mm - - -
1787935775 28.89° C 100% 1017 hPa 2.03 mm - - -
1787935475 28.89° C 100% 1017 hPa 2.03 mm - - -
1787935175 30° C 100% 1017.1 hPa 2.03 mm - - -
1787934875 28.89° C 100% 1017.1 hPa 1.78 mm - - -
1787934575 28.33° C 100% 1017.1 hPa 1.78 mm - - -
1787934275 27.78° C 100% 1017.1 hPa 1.78 mm - - -
1787933975 27.22° C 100% 1017.3 hPa 1.78 mm - - -
1787933675 26.11° C 100% 1017.3 hPa 1.78 mm - - -
1787933375 26.11° C 100% 1017.4 hPa 1.27 mm - - -
1787933075 26.11° C 100% 1017.6 hPa 1.02 mm - - -
1787932775 26.11° C 100% 1017.7 hPa 0.25 mm - - -
1787932485 25.56° C 100% 1017.9 hPa 0.25 mm - - -
1787932175 26.11° C 100% 1017.8 hPa 0.25 mm - - -
1787931875 25.56° C 100% 1017.6 hPa 0.25 mm - - -
1787931575 25.56° C 100% 1017.5 hPa 0.25 mm - - -
1787931275 25.56° C 100% 1017.4 hPa 0.25 mm - - -

* Rain latest hour (hover to see other rain measurements)
** Current wind speed in m/s (hover to see current wind gust speed)